This is the latest recevied weather packets stored in our database for station/object KG0HG. If no packets are shown the sender has not sent any weather packets the latest 10 day(s).
| Time | Temp. | Humidity | Pressure | Rain* | Wind** | Luminosity | Snow |
|---|---|---|---|---|---|---|---|
| 1778101224 | 15.56° C | 35% | 1018 hPa | 0 mm | - | 49 W/m² | - |
| 1778100921 | 15.56° C | 34% | 1018.1 hPa | 0 mm | - | 104 W/m² | - |
| 1778100616 | 15° C | 34% | 1018.1 hPa | 0 mm | - | 51 W/m² | - |
| 1778100314 | 15.56° C | 34% | 1018.2 hPa | 0 mm | - | 50 W/m² | - |
| 1778100011 | 15.56° C | 34% | 1018.3 hPa | 0 mm | - | 56 W/m² | - |
| 1778099709 | 15.56° C | 34% | 1018.3 hPa | 0 mm | - | 106 W/m² | - |
| 1778099404 | 15.56° C | 33% | 1018.5 hPa | 0 mm | - | 92 W/m² | - |
| 1778099102 | 15° C | 33% | 1018.3 hPa | 0 mm | - | 78 W/m² | - |
| 1778098798 | 14.44° C | 33% | 1018.2 hPa | 0 mm | - | 65 W/m² | - |
| 1778098496 | 15° C | 34% | 1018.5 hPa | 0 mm | - | 79 W/m² | - |
| 1778098187 | 15° C | 33% | 1018.5 hPa | 0 mm | - | 75 W/m² | - |
| 1778097883 | 15° C | 33% | 1018.7 hPa | 0 mm | - | 207 W/m² | - |
| 1778097579 | 14.44° C | 33% | 1018.7 hPa | 0 mm | - | 84 W/m² | - |
| 1778097277 | 15° C | 32% | 1018.6 hPa | 0 mm | - | 74 W/m² | - |
| 1778096973 | 14.44° C | 34% | 1018.6 hPa | 0 mm | - | 198 W/m² | - |
| 1778096671 | 14.44° C | 31% | 1018.8 hPa | 0 mm | - | 710 W/m² | - |
| 1778096367 | 15° C | 33% | 1018.7 hPa | 0 mm | - | 65 W/m² | - |
| 1778096065 | 15° C | 31% | 1018.4 hPa | 0 mm | - | 72 W/m² | - |
| 1778095761 | 13.89° C | 33% | 1018.7 hPa | 0 mm | - | 727 W/m² | - |
| 1778095458 | 14.44° C | 33% | 1018.9 hPa | 0 mm | - | 733 W/m² | - |
| 1778095155 | 13.89° C | 32% | 1019 hPa | 0 mm | - | 739 W/m² | - |
| 1778094851 | 13.89° C | 35% | 1018.9 hPa | 0 mm | - | 734 W/m² | - |
| 1778094548 | 14.44° C | 33% | 1019 hPa | 0 mm | - | 736 W/m² | - |
| 1778094245 | 13.89° C | 35% | 1019 hPa | 0 mm | - | 737 W/m² | - |
| 1778093942 | 13.89° C | 33% | 1018.9 hPa | 0 mm | - | 743 W/m² | - |
* Rain latest hour (hover to see other rain measurements)
** Current wind speed in m/s (hover to see current wind gust speed)